Terug naar catalogus

STARLINK-33712

ActiefCommunicatieVLEO
NORAD 63797·PAYLOAD·🇺🇸 United States

Gelanceerd May 2, 2025 vanaf Cape Canaveral Space Force Station

Loading…

Volgende Passages (komende 24 uur)

TLE

VersSource: CelesTrak SupGP

Epoch: Sep 15, 2026, 03:53 UTC

1 63797C 25091Y   26258.16229167 -.00031111  00000+0 -11269-2 0  2583
2 63797  43.0040  66.1220 0001783 271.1508 254.3600 15.27590784    14

Volg STARLINK-33712 in realtime met AllMySat

Download on the App Store